User: anonymous   Login
Location: Vancouver
(49.2500°N, 123.1330°W)
Time: 02:13:48
(UTC-07:00)
Language:

ERS-2 - Orbit

View from above orbital plane
View from above orbital plane
View from above satellite
View from above satellite

Ground track
Ground track

The orbit data is extracted from the following two-line orbital elements,

1 23560U 95021A   16180.45312999  .00001684  00000-0  84211-4 0  9990
2 23560  98.5144 120.6288 0005258  70.9384 289.2416 15.19137902121652
Epoch (UTC): 28 June 2016 10:52:30
Eccentricity: 0.0005258
inclination: 98.5144°
perigee height: 505 km
apogee height: 512 km
right ascension of ascending node: 120.6288°
argument of perigee: 70.9384°
revolutions per day: 15.19137902
mean anomaly at epoch: 289.2416°
orbit number at epoch: 12165

The dashed part of the orbit path shows where the satellite is in the earth's shadow,  

DLR